Estación de Combarbala

Ultimos registro cada 15 minutos 46
Estación Fecha / Hora Temperatura Humedad Lluvia Velocidad Dirección Radiación Presion
46 Combarbala 05-05-2026 11:15 24,1 23,4 0 0,5 336 569,4 909
45 Combarbala 05-05-2026 11:00 23,2 25 0 0,5 351 549,4 909,1
44 Combarbala 05-05-2026 10:45 22,2 27,1 0 0,5 358 524,4 909,3
43 Combarbala 05-05-2026 10:30 22,5 25,8 0 0,5 329 496,9 909,2
42 Combarbala 05-05-2026 10:15 21,6 27 0 0,5 292 468,1 909,2
41 Combarbala 05-05-2026 10:00 22,2 25,3 0 0 248 439,4 909,3
40 Combarbala 05-05-2026 09:45 20,6 23 0 0 247 404,4 909,3
39 Combarbala 05-05-2026 09:30 19,7 23,4 0 0 246 293,1 909
38 Combarbala 05-05-2026 09:15 19 23,8 0 0 246 275,6 908,9
37 Combarbala 05-05-2026 09:00 19,3 23,6 0 0 246 300,6 908,8
36 Combarbala 05-05-2026 08:45 18,1 23,9 0 0 246 190,6 908,8
35 Combarbala 05-05-2026 08:30 15,5 27,2 0 0 246 145,6 908,9
34 Combarbala 05-05-2026 08:15 14,7 27,2 0 0 246 83,1 909
33 Combarbala 05-05-2026 08:00 14,3 26,4 0 0 246 44,4 908,9
32 Combarbala 05-05-2026 07:45 13,4 26 0 0 246 20,6 908,7
31 Combarbala 05-05-2026 07:30 13,6 26 0 0 246 5,6 908,5
30 Combarbala 05-05-2026 07:15 13,5 26,6 0 0 246 0,6 908,4
29 Combarbala 05-05-2026 07:00 13,5 26,7 0 0 246 0,6 908,4
28 Combarbala 05-05-2026 06:45 13,4 26,7 0 0 246 0,6 908,2
27 Combarbala 05-05-2026 06:30 14,6 25,8 0 0 246 0,6 908,1
26 Combarbala 05-05-2026 06:15 14,4 26,2 0 0 246 0,6 908,2
25 Combarbala 05-05-2026 06:00 15,1 24,9 0 0 246 0,6 908
24 Combarbala 05-05-2026 05:45 14,9 25,3 0 0 246 0,6 907,8
23 Combarbala 05-05-2026 05:30 14,5 25,3 0 0 246 0,6 907,5
22 Combarbala 05-05-2026 05:15 14,9 24,7 0 0 246 0,6 907,6
21 Combarbala 05-05-2026 05:00 14,7 25,6 0 0 246 0,6 907,2
20 Combarbala 05-05-2026 04:45 15,2 26 0 0 246 0,6 907
19 Combarbala 05-05-2026 04:30 15,1 26,6 0 0 246 0,6 907,2
18 Combarbala 05-05-2026 04:15 14,6 27 0 0 246 0,6 907,2
17 Combarbala 05-05-2026 04:00 14,4 25,8 0 0 246 0,6 907,4
16 Combarbala 05-05-2026 03:45 15,1 26,5 0 0 246 0,6 907,4
15 Combarbala 05-05-2026 03:30 14,6 27,9 0 0 246 0,6 907,6
14 Combarbala 05-05-2026 03:15 15,1 26,1 0 0 246 0,6 907,9
13 Combarbala 05-05-2026 03:00 15,1 27 0 0 246 0,6 908,2
12 Combarbala 05-05-2026 02:45 14,8 27 0 0 246 0,6 908,3
11 Combarbala 05-05-2026 02:30 15,5 27,4 0 0 246 0,6 908,5
10 Combarbala 05-05-2026 02:15 15,3 28,1 0 0 246 0,6 908,8
9 Combarbala 05-05-2026 02:00 14,4 27,5 0 0 246 0,6 908,8
8 Combarbala 05-05-2026 01:45 15,2 26,8 0 0 246 0,6 908,8
7 Combarbala 05-05-2026 01:30 15,8 25,8 0 0 246 0,6 908,9
6 Combarbala 05-05-2026 01:15 15,6 27,3 0 0 246 0,6 909,2
5 Combarbala 05-05-2026 01:00 16 28,2 0 0 246 0,6 909,4
4 Combarbala 05-05-2026 00:45 15,6 30,7 0 0 246 0,6 909,6
3 Combarbala 05-05-2026 00:30 15,4 30,2 0 0 246 0,6 909,7
2 Combarbala 05-05-2026 00:15 15,6 29,8 0 0 246 0,6 909,7
1 Combarbala 05-05-2026 00:00 15,7 29,8 0 0 246 0,6 909,7